Location: Risskov
(56.1972°N, 10.2480°E)
Time: 13:24:33
(UTC+00:00)

Cosmos 2058 - Pass Details

Date: 05 July 2020
Orbit: 561 x 584 km, 82.5° (Epoch: 07 August)

Event Time Altitude Azimuth Distance (km) Brightness Sun altitude
Exits shadow 21:24:56 - 163° (SSE) 1,979 5.0 -7.2°
Reaches altitude 10° 21:25:11 10° 162° (SSE) 1,886 4.9 -7.2°
Maximum altitude 21:29:03 39° 93° (E) 867 3.6 -7.5°
Drops below altitude 10° 21:32:56 10° 24° (NNE) 1,887 6.2 -7.7°
Sets 21:35:13 0° 17° (NNE) 2,786 7.2 -7.8°
